Anaktuvuk Pass, AK

5:53 PM AKDT on April 28, 2017 (GMT -0800)
Anaktuvuk Pass

Weather History for PAKP - October, 2011

Change the Weather History Date:

Wednesday, October 12, 2011

  Actual Average Record
Temperature  
Mean Temperature 12 °F -  
Max Temperature 21 °F 14 °F 37 °F (2016)
Min Temperature 3 °F 5 °F -9 °F (2004)
Degree Days  
Heating Degree Days 53    
Moisture  
Dew Point 10 °F    
Average Humidity 77    
Maximum Humidity 85    
Minimum Humidity 68    
Precipitation  
Precipitation 0.00 in - - ()
Sea Level Pressure  
Sea Level Pressure 29.85 in    
Wind  
Wind Speed 7 mph (SSW)    
Max Wind Speed 17 mph    
Max Gust Speed 23 mph    
Visibility 10 miles    
Events      
Averages and records for this station are not official NWS values.
T = Trace of Precipitation, MM = Missing Value Source: NWS Daily Summary

Daily Weather History Graph

Daily Weather History Graph

Search for Another Location

Airport or City:

Trip Planner

Search our weather history database for the weather conditions in past years. The results will help you decide how hot, cold, wet, or windy it might be!

Date:

Astronomy

Oct. 12, 2011 Rise Set
Actual Time 9:00 AM AKDT 6:45 PM AKDT
Civil Twilight 8:03 AM AKDT 7:41 PM AKDT
Nautical Twilight 6:58 AM AKDT 8:46 PM AKDT
Astronomical Twilight 5:50 AM AKDT 9:53 PM AKDT
Moon 5:43 PM AKDT (10/12) 10:45 AM AKDT (10/12)
Length of Visible Light 11h 38m
Length of Day
9h 45m
Full, 100% of the Moon is Illuminated
Oct 12
Full
Oct 19
Last Quarter
Oct 26
New
Nov 2
First Quarter
Nov 10
Full

Hourly Weather History & Observations

Time (AKDT) Temp. Windchill Dew Point Humidity Pressure Visibility Wind Dir Wind Speed Gust Speed Precip Events Conditions
12:16 AM 3.2 °F -6.2 °F -0.4 °F 85% 29.86 in 10.0 mi South 4.6 mph - N/A   Scattered Clouds
12:36 AM 6.8 °F - 3.2 °F 85% 29.86 in 10.0 mi Calm Calm - N/A   Partly Cloudy
12:56 AM 5.0 °F -4.1 °F 1.4 °F 85% 29.86 in 10.0 mi WSW 4.6 mph - N/A   Mostly Cloudy
1:16 AM 6.8 °F -0.1 °F 3.2 °F 85% 29.86 in 10.0 mi WSW 3.5 mph - N/A   Mostly Cloudy
1:36 AM 8.6 °F -1.3 °F 3.2 °F 79% 29.87 in 10.0 mi SSW 5.8 mph - N/A   Mostly Cloudy
1:56 AM 8.6 °F 0.1 °F 1.4 °F 73% 29.87 in 10.0 mi SW 4.6 mph - N/A   Overcast
2:16 AM 8.6 °F 0.1 °F 3.2 °F 79% 29.87 in 10.0 mi SW 4.6 mph - N/A   Overcast
2:36 AM 10.4 °F 0.8 °F 5.0 °F 79% 29.87 in 10.0 mi SW 5.8 mph - N/A   Overcast
2:56 AM 10.4 °F 4.0 °F 5.0 °F 79% 29.87 in 10.0 mi WSW 3.5 mph - N/A   Overcast
3:16 AM 10.4 °F 2.2 °F 5.0 °F 79% 29.86 in 10.0 mi SW 4.6 mph - N/A   Overcast
3:36 AM 12.2 °F - 6.8 °F 79% 29.86 in 10.0 mi Calm Calm - N/A   Overcast
3:56 AM 12.2 °F 1.7 °F 6.8 °F 79% 29.87 in 10.0 mi South 6.9 mph - N/A   Overcast
4:16 AM 12.2 °F 0.7 °F 8.6 °F 85% 29.87 in 10.0 mi South 8.1 mph - N/A   Overcast
4:36 AM 12.2 °F 1.7 °F 8.6 °F 85% 29.87 in 10.0 mi South 6.9 mph - N/A   Overcast
4:56 AM 12.2 °F -1.0 °F 8.6 °F 85% 29.87 in 10.0 mi South 10.4 mph - N/A   Overcast
5:16 AM 12.2 °F -0.2 °F 8.6 °F 85% 29.87 in 10.0 mi South 9.2 mph - N/A   Overcast
5:36 AM 12.2 °F 0.7 °F 8.6 °F 85% 29.87 in 10.0 mi South 8.1 mph - N/A   Overcast
5:56 AM 14.0 °F 2.9 °F 8.6 °F 79% 29.87 in 10.0 mi South 8.1 mph - N/A   Overcast
6:16 AM 14.0 °F 1.2 °F 8.6 °F 79% 29.87 in 10.0 mi South 10.4 mph - N/A   Overcast
6:36 AM 14.0 °F 2.0 °F 8.6 °F 79% 29.87 in 10.0 mi South 9.2 mph - N/A   Overcast
6:56 AM 15.8 °F 4.2 °F 10.4 °F 79% 29.87 in 10.0 mi South 9.2 mph - N/A   Overcast
7:16 AM 14.0 °F 3.9 °F 8.6 °F 79% 29.87 in 10.0 mi South 6.9 mph - N/A   Overcast
7:36 AM 15.8 °F 4.2 °F 10.4 °F 79% 29.87 in 10.0 mi South 9.2 mph - N/A   Overcast
7:56 AM 15.8 °F 6.1 °F 10.4 °F 79% 29.87 in 10.0 mi South 6.9 mph - N/A   Overcast
8:16 AM 15.8 °F 5.1 °F 8.6 °F 73% 29.87 in 10.0 mi South 8.1 mph - N/A   Overcast
8:36 AM 15.8 °F 4.2 °F 10.4 °F 79% 29.87 in 10.0 mi South 9.2 mph - N/A   Overcast
8:56 AM 15.8 °F 4.2 °F 8.6 °F 73% 29.86 in 10.0 mi South 9.2 mph - N/A   Overcast
9:16 AM 15.8 °F 4.2 °F 10.4 °F 79% 29.86 in 10.0 mi SSW 9.2 mph - N/A   Overcast
9:36 AM 15.8 °F 5.1 °F 10.4 °F 79% 29.86 in 10.0 mi SSW 8.1 mph - N/A   Overcast
9:56 AM 17.6 °F 6.4 °F 12.2 °F 79% 29.86 in 10.0 mi SSW 9.2 mph - N/A   Overcast
10:16 AM 17.6 °F 7.3 °F 12.2 °F 79% 29.86 in 8.0 mi SW 8.1 mph - N/A   Overcast
10:36 AM 17.6 °F 5.7 °F 12.2 °F 79% 29.86 in 10.0 mi South 10.4 mph - N/A   Overcast
10:56 AM 17.6 °F 5.0 °F 10.4 °F 73% 29.86 in 10.0 mi South 11.5 mph 17.3 mph N/A   Overcast
11:16 AM 19.4 °F 7.2 °F 12.2 °F 74% 29.86 in 10.0 mi SW 11.5 mph - N/A   Overcast
11:36 AM 19.4 °F 9.5 °F 10.4 °F 68% 29.86 in 10.0 mi SSW 8.1 mph - N/A   Overcast
11:56 AM 19.4 °F 10.4 °F 10.4 °F 68% 29.85 in 10.0 mi SSW 6.9 mph - N/A   Mostly Cloudy
12:16 PM 19.4 °F 11.5 °F 10.4 °F 68% 29.85 in 10.0 mi South 5.8 mph - N/A   Mostly Cloudy
12:36 PM 19.4 °F 8.6 °F 10.4 °F 68% 29.85 in 10.0 mi SW 9.2 mph - N/A   Overcast
12:56 PM 19.4 °F 7.9 °F 12.2 °F 74% 29.85 in 10.0 mi SSW 10.4 mph - N/A   Overcast
1:16 PM 19.4 °F 8.6 °F 10.4 °F 68% 29.84 in 10.0 mi SSW 9.2 mph - N/A   Overcast
1:36 PM 19.4 °F 8.6 °F 10.4 °F 68% 29.84 in 10.0 mi SSW 9.2 mph - N/A   Overcast
1:56 PM 19.4 °F 8.6 °F 12.2 °F 74% 29.84 in 10.0 mi SW 9.2 mph - N/A   Overcast
2:16 PM 19.4 °F 6.6 °F 12.2 °F 74% 29.83 in 10.0 mi SW 12.7 mph 16.1 mph N/A   Overcast
2:36 PM 19.4 °F 7.2 °F 12.2 °F 74% 29.83 in 10.0 mi SSW 11.5 mph - N/A   Overcast
2:56 PM 21.2 °F 7.8 °F 12.2 °F 68% 29.82 in 10.0 mi SW 15.0 mph - N/A   Overcast
3:16 PM 21.2 °F 7.3 °F 14.0 °F 74% 29.82 in 10.0 mi SSW 16.1 mph 19.6 mph N/A   Overcast
3:36 PM 21.2 °F 8.3 °F 12.2 °F 68% 29.82 in 10.0 mi SW 13.8 mph - N/A   Overcast
3:56 PM 21.2 °F 8.3 °F 12.2 °F 68% 29.81 in 10.0 mi SW 13.8 mph 21.9 mph N/A   Overcast
4:16 PM 21.2 °F 7.8 °F 14.0 °F 74% 29.81 in 10.0 mi SSW 15.0 mph 19.6 mph N/A   Overcast
4:36 PM 21.2 °F 7.8 °F 14.0 °F 74% 29.80 in 10.0 mi SSW 15.0 mph 19.6 mph N/A   Overcast
4:56 PM 21.2 °F 7.3 °F 14.0 °F 74% 29.80 in 10.0 mi SSW 16.1 mph 19.6 mph N/A   Overcast
5:16 PM 21.2 °F 7.8 °F 14.0 °F 74% 29.79 in 8.0 mi SSW 15.0 mph - N/A   Overcast
5:36 PM 21.2 °F 7.3 °F 14.0 °F 74% 29.79 in 4.0 mi SSW 16.1 mph 19.6 mph N/A   Overcast
5:56 PM 21.2 °F 6.8 °F 14.0 °F 74% 29.79 in 5.0 mi SSW 17.3 mph 23.0 mph N/A   Overcast
6:16 PM 21.2 °F 7.8 °F 15.8 °F 80% 29.78 in 8.0 mi SSW 15.0 mph 21.9 mph N/A   Overcast
6:36 PM 21.2 °F 7.3 °F 15.8 °F 80% 29.78 in 9.0 mi SSW 16.1 mph - N/A   Overcast
6:56 PM 21.2 °F 8.3 °F 15.8 °F 80% 29.78 in 8.0 mi SSW 13.8 mph 18.4 mph N/A   Overcast
7:16 PM 21.2 °F 8.3 °F 15.8 °F 80% 29.77 in 7.0 mi SSW 13.8 mph 21.9 mph N/A   Overcast
7:36 PM 21.2 °F 7.8 °F 15.8 °F 80% 29.77 in 10.0 mi SSW 15.0 mph 19.6 mph N/A   Overcast
7:56 PM 21.2 °F 8.3 °F 15.8 °F 80% 29.77 in 10.0 mi SSW 13.8 mph 19.6 mph N/A   Overcast
8:16 PM 21.2 °F 8.3 °F 15.8 °F 80% 29.76 in 10.0 mi SSW 13.8 mph 19.6 mph N/A   Overcast
8:36 PM 21.2 °F 8.3 °F 14.0 °F 74% 29.76 in 10.0 mi SSW 13.8 mph 18.4 mph N/A   Overcast
8:56 PM 21.2 °F 7.8 °F 15.8 °F 80% 29.76 in 10.0 mi SSW 15.0 mph - N/A   Overcast
9:16 PM 21.2 °F 8.9 °F 15.8 °F 80% 29.76 in 8.0 mi SSW 12.7 mph 20.7 mph N/A   Overcast
9:36 PM 21.2 °F 8.9 °F 15.8 °F 80% 29.76 in 10.0 mi SSW 12.7 mph 20.7 mph N/A   Overcast
9:56 PM 21.2 °F 8.3 °F 15.8 °F 80% 29.76 in 10.0 mi SSW 13.8 mph 20.7 mph N/A   Overcast
10:16 PM 21.2 °F 7.8 °F 15.8 °F 80% 29.75 in 10.0 mi South 15.0 mph - N/A   Overcast
10:36 PM 21.2 °F 7.3 °F 15.8 °F 80% 29.75 in 10.0 mi South 16.1 mph - N/A   Overcast
10:56 PM 21.2 °F 7.8 °F 15.8 °F 80% 29.75 in 10.0 mi South 15.0 mph - N/A   Overcast
11:16 PM 21.2 °F 7.8 °F 15.8 °F 80% 29.74 in 10.0 mi South 15.0 mph - N/A   Overcast
11:36 PM 21.2 °F 9.5 °F 15.8 °F 80% 29.74 in 10.0 mi SSW 11.5 mph - N/A   Overcast
11:56 PM 21.2 °F 8.3 °F 15.8 °F 80% 29.74 in 10.0 mi SSW 13.8 mph - N/A   Overcast